{"data":{"norad_id":53218,"intl_designator":"2022-084AF","name":"STARLINK-4384","alt_names":[],"object_type":"PAYLOAD","status":"ACTIVE","operator":null,"country":"US","launch_date":"2022-07-22","launch_site_code":"AFWTR","launch_vehicle":null,"mission":null,"orbit_class":"UNKNOWN","rcs_meters":null,"size_class":null,"mass_kg":null,"dimensions":null,"purposes":["comms"],"wikipedia_slug":null,"has_3d_model":false,"image_url":null,"decayed_at":null,"tle_current":{"epoch":"2026-05-25T03:56:49.248960Z","epoch_age_seconds":54219,"freshness":"FRESH","line1":"1 53218U 22084AF  26145.16445890 -.00008081  00000+0 -55762-3 0  9996","line2":"2 53218  97.4516 206.2975 0000919 282.6317  77.4807 15.05586582211419","mean_motion":15.05586582,"eccentricity":9.19e-5,"inclination_deg":97.4516,"raan_deg":206.2975,"arg_perigee_deg":282.6317,"mean_anomaly_deg":77.4807,"bstar":-0.00055762,"rev_number":21141,"period_min":95.643785433258,"perigee_km":549.06902055182,"apogee_km":550.34235803811,"semimajor_km":6927.842689295,"source":"CELESTRAK","updated_at":"2026-05-25T13:38:17.355463Z"}}}